Location: Gallinara
(44.0333°N, 8.2333°E)
Time: 01:52:45
(UTC+00:00)

MSX - Pass Details

Date: 25 September 2020
Orbit: 894 x 906 km, 98.8° (Epoch: 31 October)

Event Time Altitude Azimuth Distance (km) Brightness Sun altitude
Rises 03:37:52 0° 8° (N) 3,541 7.3 -18.6°
Reaches altitude 10° 03:40:23 10° 2° (N) 2,594 6.5 -18.1°
Maximum altitude 03:45:48 44° 292° (WNW) 1,240 4.2 -17.2°
Enters shadow 03:48:49 24° 236° (SW) 1,766 4.8 -16.7°
